BWA44M TAPA-TNCM

Flight info

Callsign BWA44M
Flight time 0h 29m
Altitude 14000
Route ELOPO B520 PJM
Aircraft B738/M-SDE2E3FGHIRWXY/LB1

Departure

Time 2026-05-08 22:55
Airport V. C. Bird International Airport (TAPA)

Arrival

Time 2026-05-08 23:24
Airport Princess Juliana International Airport (TNCM)
Time Latitude Longitude Altitude Speed Heading
2026-05-08 22:42 17.13820 -61.79378 68 ft 0 kts 327°
2026-05-08 22:49 17.13814 -61.79374 68 ft 2 kts 327°
2026-05-08 22:49 17.13790 -61.79347 68 ft 3 kts 295°
2026-05-08 22:49 17.13784 -61.79327 68 ft 3 kts 275°
2026-05-08 22:50 17.13785 -61.79305 68 ft 3 kts 257°
2026-05-08 22:50 17.13793 -61.79285 68 ft 3 kts 241°
2026-05-08 22:50 17.13794 -61.79284 68 ft 0 kts 243°
2026-05-08 22:51 17.13791 -61.79289 68 ft 2 kts 242°
2026-05-08 22:51 17.13775 -61.79318 68 ft 7 kts 238°
2026-05-08 22:51 17.13741 -61.79363 68 ft 9 kts 193°
2026-05-08 22:52 17.13695 -61.79348 68 ft 5 kts 157°
2026-05-08 22:52 17.13674 -61.79339 68 ft 3 kts 158°
2026-05-08 22:52 17.13654 -61.79336 68 ft 5 kts 186°
2026-05-08 22:52 17.13592 -61.79392 68 ft 19 kts 240°
2026-05-08 22:53 17.13506 -61.79542 68 ft 31 kts 238°
2026-05-08 22:53 17.13373 -61.79770 68 ft 40 kts 238°
2026-05-08 22:53 17.13216 -61.80038 68 ft 46 kts 238°
2026-05-08 22:53 17.13055 -61.80275 68 ft 16 kts 204°
2026-05-08 22:54 17.13009 -61.80323 68 ft 14 kts 301°
2026-05-08 22:54 17.13059 -61.80299 68 ft 15 kts 63°
2026-05-08 22:54 17.13184 -61.80076 68 ft 74 kts 58°
2026-05-08 22:54 17.13596 -61.79384 68 ft 149 kts 58°
2026-05-08 22:55 17.14181 -61.78337 550 ft 178 kts 62°
2026-05-08 22:55 17.14789 -61.77162 1349 ft 189 kts 60°
2026-05-08 22:55 17.15408 -61.76029 2661 ft 170 kts 59°
2026-05-08 22:55 17.16349 -61.75222 3226 ft 191 kts 21°
2026-05-08 22:56 17.17682 -61.75285 3759 ft 208 kts 339°
2026-05-08 22:56 17.18851 -61.76291 4436 ft 222 kts 310°
2026-05-08 22:56 17.19703 -61.77722 5065 ft 240 kts 301°
2026-05-08 22:56 17.20614 -61.79272 5734 ft 255 kts 301°
2026-05-08 22:57 17.21546 -61.80854 6754 ft 255 kts 299°
2026-05-08 22:57 17.22469 -61.82425 7683 ft 259 kts 299°
2026-05-08 22:57 17.23420 -61.84044 8590 ft 263 kts 299°
2026-05-08 22:57 17.24340 -61.85613 9449 ft 266 kts 299°
2026-05-08 22:58 17.25365 -61.87362 10321 ft 273 kts 299°
2026-05-08 22:58 17.26386 -61.89105 10732 ft 294 kts 299°
2026-05-08 22:58 17.27498 -61.91005 11050 ft 317 kts 299°
2026-05-08 22:58 17.28690 -61.93045 11400 ft 337 kts 300°
2026-05-08 22:59 17.29926 -61.95159 12168 ft 342 kts 300°
2026-05-08 22:59 17.31171 -61.97291 13008 ft 345 kts 300°
2026-05-08 22:59 17.32433 -61.99454 13594 ft 351 kts 300°
2026-05-08 22:59 17.33706 -62.01637 13914 ft 352 kts 300°
2026-05-08 23:00 17.34995 -62.03847 13989 ft 359 kts 300°
2026-05-08 23:00 17.36287 -62.06064 13995 ft 362 kts 300°
2026-05-08 23:00 17.37580 -62.08272 13854 ft 350 kts 300°
2026-05-08 23:00 17.38840 -62.10427 13585 ft 343 kts 300°
2026-05-08 23:01 17.40074 -62.12538 13207 ft 338 kts 300°
2026-05-08 23:01 17.41294 -62.14627 12784 ft 335 kts 299°
2026-05-08 23:01 17.42500 -62.16695 12356 ft 332 kts 299°
2026-05-08 23:01 17.43692 -62.18739 11929 ft 329 kts 299°
2026-05-08 23:02 17.44889 -62.20792 11530 ft 326 kts 299°
2026-05-08 23:02 17.45994 -62.22691 11338 ft 317 kts 299°
2026-05-08 23:02 17.47115 -62.24616 11158 ft 309 kts 299°
2026-05-08 23:02 17.48201 -62.26479 10992 ft 300 kts 299°
2026-05-08 23:03 17.49306 -62.28372 10826 ft 292 kts 299°
2026-05-08 23:03 17.50355 -62.30170 10670 ft 284 kts 299°
2026-05-08 23:03 17.51371 -62.31916 10520 ft 277 kts 299°
2026-05-08 23:03 17.52364 -62.33624 10372 ft 270 kts 299°
2026-05-08 23:04 17.53322 -62.35272 10231 ft 264 kts 299°
2026-05-08 23:04 17.54264 -62.36894 10091 ft 257 kts 299°
2026-05-08 23:04 17.55184 -62.38480 9891 ft 253 kts 299°
2026-05-08 23:04 17.56095 -62.40051 9652 ft 251 kts 299°
2026-05-08 23:05 17.56996 -62.41605 9400 ft 249 kts 299°
2026-05-08 23:05 17.57893 -62.43154 9147 ft 247 kts 299°
2026-05-08 23:05 17.58784 -62.44692 8894 ft 245 kts 299°
2026-05-08 23:05 17.59659 -62.46202 8641 ft 244 kts 299°
2026-05-08 23:06 17.60544 -62.47730 8379 ft 242 kts 299°
2026-05-08 23:06 17.61409 -62.49225 8118 ft 241 kts 299°
2026-05-08 23:06 17.62281 -62.50731 7849 ft 240 kts 299°
2026-05-08 23:06 17.63147 -62.52225 7580 ft 240 kts 299°
2026-05-08 23:07 17.64029 -62.53747 7305 ft 246 kts 299°
2026-05-08 23:07 17.64909 -62.55302 7039 ft 249 kts 296°
2026-05-08 23:07 17.65648 -62.56932 6917 ft 246 kts 291°
2026-05-08 23:07 17.66295 -62.58590 6826 ft 246 kts 290°
2026-05-08 23:08 17.66899 -62.60266 6736 ft 246 kts 289°
2026-05-08 23:08 17.67495 -62.61946 6646 ft 245 kts 289°
2026-05-08 23:08 17.68092 -62.63620 6557 ft 245 kts 289°
2026-05-08 23:08 17.68692 -62.65294 6468 ft 245 kts 289°
2026-05-08 23:09 17.69285 -62.66945 6380 ft 245 kts 289°
2026-05-08 23:09 17.69888 -62.68615 6291 ft 245 kts 290°
2026-05-08 23:09 17.70496 -62.70299 6201 ft 245 kts 290°
2026-05-08 23:09 17.71102 -62.71972 6103 ft 245 kts 290°
2026-05-08 23:10 17.71485 -62.73029 6042 ft 245 kts 290°
2026-05-08 23:10 17.71613 -62.73380 6021 ft 245 kts 290°
2026-05-08 23:10 17.72175 -62.74929 5934 ft 246 kts 290°
2026-05-08 23:10 17.72782 -62.76598 5842 ft 246 kts 291°
2026-05-08 23:11 17.73391 -62.78271 5751 ft 246 kts 291°
2026-05-08 23:11 17.73989 -62.79914 5663 ft 246 kts 291°
2026-05-08 23:11 17.74589 -62.81561 5575 ft 246 kts 291°
2026-05-08 23:11 17.75201 -62.83241 5485 ft 247 kts 291°
2026-05-08 23:12 17.75818 -62.84935 5395 ft 247 kts 291°
2026-05-08 23:12 17.76432 -62.86619 5305 ft 247 kts 291°
2026-05-08 23:12 17.77039 -62.88283 5216 ft 248 kts 291°
2026-05-08 23:12 17.77661 -62.89978 5125 ft 248 kts 292°
2026-05-08 23:13 17.78282 -62.91668 5034 ft 248 kts 292°
2026-05-08 23:13 17.78902 -62.93361 4944 ft 249 kts 292°
2026-05-08 23:13 17.79523 -62.95055 4853 ft 249 kts 292°
2026-05-08 23:13 17.80146 -62.96749 4763 ft 249 kts 292°
2026-05-08 23:14 17.80772 -62.98451 4672 ft 250 kts 292°
2026-05-08 23:14 17.81381 -63.00111 4583 ft 250 kts 292°
2026-05-08 23:14 17.81993 -63.01783 4494 ft 250 kts 292°
2026-05-08 23:14 17.82622 -63.03503 4402 ft 251 kts 292°
2026-05-08 23:15 17.83224 -63.05153 4314 ft 251 kts 292°
2026-05-08 23:15 17.83851 -63.06874 4223 ft 251 kts 292°
2026-05-08 23:15 17.84473 -63.08583 4161 ft 250 kts 291°
2026-05-08 23:15 17.85094 -63.10289 4056 ft 250 kts 291°
2026-05-08 23:16 17.85713 -63.11992 3957 ft 251 kts 291°
2026-05-08 23:16 17.86330 -63.13689 3862 ft 252 kts 291°
2026-05-08 23:16 17.86954 -63.15407 3768 ft 252 kts 291°
2026-05-08 23:16 17.87576 -63.17122 3675 ft 252 kts 291°
2026-05-08 23:17 17.88203 -63.18848 3583 ft 252 kts 291°
2026-05-08 23:17 17.88830 -63.20576 3491 ft 252 kts 291°
2026-05-08 23:17 17.89245 -63.21721 3429 ft 252 kts 291°
2026-05-08 23:17 17.89869 -63.23439 3338 ft 252 kts 291°
2026-05-08 23:18 17.90493 -63.25159 3246 ft 252 kts 291°
2026-05-08 23:18 17.91138 -63.26866 3147 ft 252 kts 295°
2026-05-08 23:18 17.92721 -63.28576 3005 ft 251 kts 335°
2026-05-08 23:18 17.93866 -63.28848 2961 ft 249 kts 356°
2026-05-08 23:19 17.95527 -63.28766 2906 ft 228 kts
2026-05-08 23:19 17.97038 -63.28812 2809 ft 214 kts 355°
2026-05-08 23:19 17.98487 -63.28992 2732 ft 203 kts 352°
2026-05-08 23:19 17.99858 -63.29119 2616 ft 194 kts
2026-05-08 23:20 18.00945 -63.28458 2528 ft 178 kts 49°
2026-05-08 23:20 18.01499 -63.27334 2475 ft 172 kts 70°
2026-05-08 23:20 18.01821 -63.26139 2235 ft 168 kts 75°
2026-05-08 23:20 18.02067 -63.24961 2098 ft 162 kts 79°
2026-05-08 23:21 18.02247 -63.23798 1979 ft 161 kts 81°
2026-05-08 23:21 18.02415 -63.22629 1863 ft 163 kts 81°
2026-05-08 23:21 18.02585 -63.21445 1727 ft 165 kts 81°
2026-05-08 23:21 18.02753 -63.20267 1530 ft 164 kts 81°
2026-05-08 23:22 18.02921 -63.19091 1343 ft 163 kts 81°
2026-05-08 23:22 18.03086 -63.17934 1160 ft 155 kts 81°
2026-05-08 23:22 18.03242 -63.16846 1010 ft 147 kts 81°
2026-05-08 23:22 18.03392 -63.15793 822 ft 144 kts 81°
2026-05-08 23:23 18.03540 -63.14759 630 ft 143 kts 81°
2026-05-08 23:23 18.03687 -63.13729 438 ft 143 kts 81°
2026-05-08 23:23 18.03840 -63.12695 201 ft 143 kts 81°
2026-05-08 23:23 18.03981 -63.11677 31 ft 137 kts 82°
2026-05-08 23:24 18.04105 -63.10797 8 ft 98 kts 81°
2026-05-08 23:24 18.04151 -63.10465 8 ft 14 kts 110°
2026-05-08 23:24 18.04125 -63.10452 8 ft 6 kts 206°
2026-05-08 23:24 18.04136 -63.10596 8 ft 29 kts 264°
2026-05-08 23:25 18.04100 -63.10820 8 ft 34 kts 259°
2026-05-08 23:25 18.04083 -63.10963 8 ft 37 kts 263°
2026-05-08 23:25 18.04073 -63.11162 8 ft 15 kts 319°
2026-05-08 23:25 18.04138 -63.11190 8 ft 8 kts 276°
2026-05-08 23:26 18.04130 -63.11287 8 ft 9 kts 279°
2026-05-08 23:26 18.04205 -63.11319 8 ft 18 kts 352°
2026-05-08 23:26 18.04291 -63.11297 8 ft 17 kts
2026-05-08 23:26 18.04347 -63.11300 8 ft 2 kts 352°
2026-05-08 23:27 18.04348 -63.11301 8 ft 0 kts 352°